sat.trackr.live / text

‹ back to catalog

TRITON-1

NORAD 39427 · 2013-066M

PAYLOAD ACTIVE UNKNOWN

§ Identity

Operator
Country
UK
Launch date
2013-11-21
Launch site
DLS
Launch vehicle
Mass (kg)
RCS (m²)
0.12

Purposes: tech_demo

External: N2YO · Heavens-Above · Gunter

§ Orbital elements

Epoch: 2026-05-25T04:46:57.860256Z

Period
97.19 min
Inclination
97.8255°
Eccentricity
0.0089023
Mean motion
14.81596975 rev/d
Perigee alt
562.0 km
Apogee alt
686.6 km
Semi-major
7,002.4 km
B*
3.2224e-4
RAAN
55.5293°
Arg perigee
310.1210°
Mean anomaly
49.2226°
Rev number
67,068

§ Raw data

TRITON-11 39427U 13066M   26145.19928079  .00002653  00000+0  32224-3 0  99952 39427  97.8255  55.5293 0089023 310.1210  49.2226 14.81596975670689

JSON: /api/v1/satellites/39427 · /tle

For live sub-satellite position, see the globe view (requires WebGL).

§ Visibility from observer

Set your observer location to see the next 7 days of passes ≥ 10°. The values pass through the URL so the page stays shareable.

No JS? Fill the form by hand. The geolocation button needs JavaScript.

§ Radio — SatNOGS DB

ModeDescriptionDownlinkUplink
CW Mode 1200bps RC-BPSK CW 145.818 MHz
FM Mode S Beacon 2.408 GHz
AFSK Primary TLM - AFSK1k2 145.815 MHz
CW Primary TLM - CW 145.815 MHz
AFSK Secondary TLM - AFSK1k2 145.860 MHz
CW Secondary TLM - CW 145.860 MHz

6 transmitters · refreshed weekly from db.satnogs.org